Time,TemperatureF,DewpointF,PressureIn,WindDirection,WindDirectionDegrees,WindSpeedMPH,WindSpeedGustMPH,Humidity,HourlyPrecipIn,Conditions,Clouds,dailyrainin,SoftwareType,DateUTC
2013-01-07 00:02:00,41.0,41.0,30.16,SW,225,2.0,8.0,99,0.01,,,-99.99,,2013-01-07 08:02:00,
2013-01-07 00:11:00,41.0,41.0,30.16,SW,225,2.0,8.0,99,0.01,,,-99.99,,2013-01-07 08:11:00,
2013-01-07 00:22:00,41.0,41.0,30.15,North,360,2.0,5.0,99,0.01,,,-99.99,,2013-01-07 08:22:00,
2013-01-07 00:32:00,41.0,41.0,30.14,NW,315,2.0,6.0,99,0.02,,,-99.99,,2013-01-07 08:32:00,
2013-01-07 00:42:00,41.0,41.0,30.14,NW,315,2.0,6.0,99,0.02,,,-99.99,,2013-01-07 08:42:00,
2013-01-07 00:52:00,41.0,41.0,30.14,NW,315,0.0,5.0,99,0.02,,,-99.99,,2013-01-07 08:52:00,
2013-01-07 01:02:00,41.0,41.0,30.14,North,360,3.0,7.0,99,0.01,,,-99.99,,2013-01-07 09:02:00,
2013-01-07 01:12:00,41.0,41.0,30.14,North,360,3.0,7.0,99,0.01,,,-99.99,,2013-01-07 09:12:00,
2013-01-07 01:22:00,41.0,41.0,30.12,North,360,1.0,4.0,99,0.01,,,-99.99,,2013-01-07 09:22:00,
2013-01-07 01:32:00,41.0,41.0,30.12,NW,315,1.0,7.0,99,0.00,,,-99.99,,2013-01-07 09:32:00,
2013-01-07 01:42:00,41.0,41.0,30.12,NW,315,1.0,7.0,99,0.00,,,-99.99,,2013-01-07 09:42:00,
2013-01-07 01:52:00,41.0,41.0,30.12,NW,315,1.0,6.0,99,0.00,,,-99.99,,2013-01-07 09:52:00,
2013-01-07 02:02:00,41.0,41.0,30.11,SSW,202,2.0,4.0,99,0.00,,,-99.99,,2013-01-07 10:02:00,
2013-01-07 02:11:00,41.0,41.0,30.11,SSW,202,2.0,4.0,99,0.00,,,-99.99,,2013-01-07 10:11:00,
2013-01-07 02:22:00,41.0,41.0,30.11,North,360,0.0,3.0,99,0.00,,,-99.99,,2013-01-07 10:22:00,
2013-01-07 02:32:00,41.0,41.0,30.10,East,90,1.0,5.0,99,0.00,,,-99.99,,2013-01-07 10:32:00,
2013-01-07 02:42:00,41.0,41.0,30.10,East,90,1.0,5.0,99,0.00,,,-99.99,,2013-01-07 10:42:00,
2013-01-07 02:52:00,41.0,41.0,30.09,NW,315,1.0,4.0,99,0.01,,,-99.99,,2013-01-07 10:52:00,
2013-01-07 03:02:00,41.0,41.0,30.09,NW,315,3.0,6.0,99,0.01,,,-99.99,,2013-01-07 11:02:00,
2013-01-07 03:12:00,41.0,41.0,30.09,NW,315,3.0,6.0,99,0.01,,,-99.99,,2013-01-07 11:12:00,
2013-01-07 03:22:00,41.0,41.0,30.07,North,360,3.0,9.0,99,0.01,,,-99.99,,2013-01-07 11:22:00,
2013-01-07 03:32:00,41.0,41.0,30.07,North,360,2.0,10.0,99,0.01,,,-99.99,,2013-01-07 11:32:00,
2013-01-07 03:42:00,41.0,41.0,30.07,North,360,2.0,10.0,99,0.01,,,-99.99,,2013-01-07 11:42:00,
2013-01-07 03:53:00,42.0,42.0,30.07,North,360,2.0,8.0,99,0.00,,,-99.99,,2013-01-07 11:53:00,
2013-01-07 04:02:00,42.0,42.0,30.06,NW,315,2.0,10.0,99,0.00,,,-99.99,,2013-01-07 12:02:00,
2013-01-07 04:12:00,42.0,42.0,30.05,NW,315,2.0,8.0,99,0.01,,,-99.99,,2013-01-07 12:12:00,
2013-01-07 04:22:00,42.0,42.0,30.05,NW,315,2.0,8.0,99,0.01,,,-99.99,,2013-01-07 12:22:00,
2013-01-07 04:32:00,42.0,42.0,30.04,North,360,2.0,4.0,99,0.01,,,-99.99,,2013-01-07 12:32:00,
2013-01-07 04:42:00,42.0,42.0,30.04,North,360,2.0,4.0,99,0.01,,,-99.99,,2013-01-07 12:42:00,
2013-01-07 04:53:00,42.0,42.0,30.02,SW,225,2.0,7.0,99,0.01,,,-99.99,,2013-01-07 12:53:00,
2013-01-07 05:02:00,42.0,42.0,30.01,SW,225,1.0,8.0,99,0.01,,,-99.99,,2013-01-07 13:02:00,
2013-01-07 05:12:00,42.0,42.0,30.01,SW,225,1.0,8.0,99,0.01,,,-99.99,,2013-01-07 13:12:00,
2013-01-07 05:22:00,42.0,42.0,30.00,NW,315,2.0,9.0,99,0.00,,,-99.99,,2013-01-07 13:22:00,
2013-01-07 05:32:00,42.0,42.0,30.00,NW,315,2.0,7.0,99,0.00,,,-99.99,,2013-01-07 13:32:00,
2013-01-07 05:42:00,42.0,42.0,30.00,NW,315,2.0,7.0,99,0.00,,,-99.99,,2013-01-07 13:42:00,
2013-01-07 05:53:00,42.0,42.0,30.00,North,360,4.0,13.0,99,0.01,,,-99.99,,2013-01-07 13:53:00,
2013-01-07 06:02:00,42.0,42.0,29.98,SE,135,2.0,15.0,99,0.01,,,-99.99,,2013-01-07 14:02:00,
2013-01-07 06:12:00,42.0,42.0,29.98,SE,135,2.0,15.0,99,0.01,,,-99.99,,2013-01-07 14:12:00,
2013-01-07 06:22:00,42.0,42.0,29.98,NW,315,2.0,11.0,99,0.01,,,-99.99,,2013-01-07 14:22:00,
2013-01-07 06:32:00,42.0,42.0,29.98,North,360,3.0,14.0,99,0.02,,,-99.99,,2013-01-07 14:32:00,
2013-01-07 06:42:00,42.0,42.0,29.98,North,360,3.0,14.0,99,0.02,,,-99.99,,2013-01-07 14:42:00,
2013-01-07 06:53:00,42.0,42.0,29.98,North,360,1.0,10.0,99,0.01,,,-99.99,,2013-01-07 14:53:00,
2013-01-07 07:02:00,43.0,43.0,29.97,NW,315,3.0,9.0,99,0.01,,,-99.99,,2013-01-07 15:02:00,
2013-01-07 07:12:00,43.0,43.0,29.97,NW,315,3.0,9.0,99,0.01,,,-99.99,,2013-01-07 15:12:00,
2013-01-07 07:22:00,43.0,43.0,29.96,NW,315,2.0,15.0,99,0.01,,,-99.99,,2013-01-07 15:22:00,
2013-01-07 07:33:00,44.0,44.0,29.97,NW,315,3.0,11.0,99,0.00,,,-99.99,,2013-01-07 15:33:00,
2013-01-07 07:42:00,44.0,44.0,29.97,NW,315,3.0,11.0,99,0.00,,,-99.99,,2013-01-07 15:42:00,
2013-01-07 07:53:00,44.0,44.0,29.97,NW,315,1.0,9.0,99,0.00,,,-99.99,,2013-01-07 15:53:00,
2013-01-07 08:02:00,44.0,44.0,29.97,North,360,2.0,8.0,99,0.00,,,-99.99,,2013-01-07 16:02:00,
2013-01-07 08:12:00,44.0,44.0,29.97,North,360,2.0,8.0,99,0.00,,,-99.99,,2013-01-07 16:12:00,
2013-01-07 08:22:00,45.0,45.0,29.98,East,90,2.0,15.0,99,0.00,,,-99.99,,2013-01-07 16:22:00,
2013-01-07 08:32:00,45.0,45.0,29.98,NW,315,2.0,10.0,99,0.00,,,-99.99,,2013-01-07 16:32:00,
2013-01-07 08:42:00,45.0,45.0,29.98,NW,315,2.0,10.0,99,0.00,,,-99.99,,2013-01-07 16:42:00,
2013-01-07 08:53:00,45.0,45.0,29.98,NE,45,2.0,10.0,99,0.00,,,-99.99,,2013-01-07 16:53:00,
2013-01-07 09:02:00,46.0,46.0,30.00,NE,45,2.0,7.0,99,0.00,,,-99.99,,2013-01-07 17:02:00,
2013-01-07 09:12:00,46.0,46.0,30.00,NE,45,2.0,7.0,99,0.00,,,-99.99,,2013-01-07 17:12:00,
2013-01-07 09:22:00,46.0,46.0,30.01,NW,315,0.0,4.0,99,0.00,,,-99.99,,2013-01-07 17:22:00,
2013-01-07 09:32:00,47.0,47.0,30.03,East,90,0.0,4.0,99,0.00,,,-99.99,,2013-01-07 17:32:00,
2013-01-07 09:42:00,47.0,47.0,30.03,East,90,0.0,4.0,99,0.00,,,-99.99,,2013-01-07 17:42:00,
2013-01-07 09:53:00,47.0,47.0,30.03,SE,135,1.0,2.0,99,0.00,,,-99.99,,2013-01-07 17:53:00,
2013-01-07 10:02:00,46.0,46.0,30.03,South,180,2.0,3.0,99,0.00,,,-99.99,,2013-01-07 18:02:00,
2013-01-07 10:12:00,46.0,46.0,30.03,South,180,2.0,3.0,99,0.00,,,-99.99,,2013-01-07 18:12:00,
2013-01-07 10:23:00,46.0,46.0,30.04,South,180,0.0,3.0,99,0.00,,,-99.99,,2013-01-07 18:23:00,
2013-01-07 10:32:00,47.0,47.0,30.06,SE,135,0.0,0.0,99,0.00,,,-99.99,,2013-01-07 18:32:00,
2013-01-07 10:42:00,47.0,47.0,30.06,SE,135,0.0,0.0,99,0.00,,,-99.99,,2013-01-07 18:42:00,
2013-01-07 10:52:00,47.0,47.0,30.06,South,180,0.0,1.0,99,0.00,,,-99.99,,2013-01-07 18:52:00,
2013-01-07 11:02:00,48.0,48.0,30.06,South,180,0.0,2.0,99,0.00,,,-99.99,,2013-01-07 19:02:00,
2013-01-07 11:12:00,48.0,48.0,30.06,South,180,0.0,2.0,99,0.00,,,-99.99,,2013-01-07 19:12:00,
2013-01-07 11:22:00,49.0,49.0,30.06,SE,135,0.0,0.0,99,0.00,,,-99.99,,2013-01-07 19:22:00,
2013-01-07 11:32:00,49.0,49.0,30.06,SE,135,1.0,2.0,99,0.00,,,-99.99,,2013-01-07 19:32:00,
2013-01-07 11:42:00,49.0,49.0,30.06,SE,135,1.0,2.0,99,0.00,,,-99.99,,2013-01-07 19:42:00,
2013-01-07 11:53:00,50.0,50.0,30.06,North,360,2.0,4.0,99,0.00,,,-99.99,,2013-01-07 19:53:00,
2013-01-07 12:02:00,51.0,51.0,30.06,North,360,1.0,4.0,99,0.00,,,-99.99,,2013-01-07 20:02:00,
2013-01-07 12:22:00,51.0,51.0,30.06,ENE,68,1.0,7.0,99,0.00,,,-99.99,,2013-01-07 20:22:00,
2013-01-07 12:32:00,52.0,52.0,30.06,NW,315,2.0,4.0,99,0.00,,,-99.99,,2013-01-07 20:32:00,
2013-01-07 12:53:00,52.0,51.0,30.07,SE,135,1.0,7.0,97,0.00,,,-99.99,,2013-01-07 20:53:00,
2013-01-07 13:02:00,52.0,51.0,30.08,NW,315,2.0,8.0,95,0.00,,,-99.99,,2013-01-07 21:02:00,
2013-01-07 13:12:00,52.0,51.0,30.08,NW,315,2.0,8.0,95,0.00,,,-99.99,,2013-01-07 21:12:00,
2013-01-07 13:22:00,52.0,50.0,30.09,NE,45,1.0,8.0,94,0.00,,,-99.99,,2013-01-07 21:22:00,
2013-01-07 13:32:00,53.0,51.0,30.09,NW,315,3.0,11.0,93,0.00,,,-99.99,,2013-01-07 21:32:00,
2013-01-07 13:53:00,54.0,50.0,30.11,NW,315,5.0,12.0,87,0.00,,,-99.99,,2013-01-07 21:53:00,
2013-01-07 14:02:00,55.0,51.0,30.12,North,360,3.0,9.0,85,0.00,,,-99.99,,2013-01-07 22:02:00,
2013-01-07 14:33:00,53.0,49.0,30.14,West,270,1.0,6.0,86,0.00,,,-99.99,,2013-01-07 22:33:00,
2013-01-07 14:42:00,53.0,49.0,30.14,West,270,1.0,6.0,86,0.00,,,-99.99,,2013-01-07 22:42:00,
2013-01-07 14:53:00,54.0,50.0,30.14,SE,135,1.0,4.0,85,0.00,,,-99.99,,2013-01-07 22:53:00,
2013-01-07 15:02:00,58.0,52.0,30.14,SE,135,0.0,5.0,80,0.00,,,-99.99,,2013-01-07 23:02:00,
2013-01-07 15:22:00,55.0,49.0,30.17,NE,45,2.0,6.0,79,0.00,,,-99.99,,2013-01-07 23:22:00,
2013-01-07 15:32:00,53.0,48.0,30.16,NW,315,1.0,10.0,84,0.00,,,-99.99,,2013-01-07 23:32:00,
2013-01-07 15:53:00,52.0,47.0,30.18,NE,45,3.0,7.0,84,0.00,,,-99.99,,2013-01-07 23:53:00,
2013-01-07 16:02:00,51.0,47.0,30.19,NE,45,2.0,8.0,87,0.00,,,-99.99,,2013-01-08 00:02:00,
2013-01-07 16:12:00,51.0,47.0,30.19,NE,45,2.0,8.0,87,0.00,,,-99.99,,2013-01-08 00:12:00,
2013-01-07 16:22:00,51.0,48.0,30.19,WNW,292,2.0,6.0,88,0.00,,,-99.99,,2013-01-08 00:22:00,
2013-01-07 16:32:00,50.0,47.0,30.20,North,360,1.0,4.0,90,0.00,,,-99.99,,2013-01-08 00:32:00,
2013-01-07 16:42:00,50.0,47.0,30.20,North,360,1.0,4.0,90,0.00,,,-99.99,,2013-01-08 00:42:00,
2013-01-07 16:52:00,48.0,46.0,30.21,South,180,0.0,3.0,93,0.00,,,-99.99,,2013-01-08 00:52:00,
2013-01-07 17:02:00,47.0,45.0,30.22,NW,315,1.0,2.0,94,0.00,,,-99.99,,2013-01-08 01:02:00,
2013-01-07 17:11:00,47.0,45.0,30.22,NW,315,1.0,2.0,94,0.00,,,-99.99,,2013-01-08 01:11:00,
2013-01-07 17:22:00,47.0,46.0,30.21,NW,315,0.0,2.0,96,0.00,,,-99.99,,2013-01-08 01:22:00,
2013-01-07 17:32:00,46.0,45.0,30.22,NE,45,0.0,2.0,97,0.00,,,-99.99,,2013-01-08 01:32:00,
2013-01-07 17:42:00,46.0,45.0,30.22,NE,45,0.0,2.0,97,0.00,,,-99.99,,2013-01-08 01:42:00,
2013-01-07 17:52:00,46.0,45.0,30.23,West,270,0.0,1.0,97,0.00,,,-99.99,,2013-01-08 01:52:00,
2013-01-07 18:02:00,45.0,44.0,30.23,West,270,0.0,2.0,98,0.00,,,-99.99,,2013-01-08 02:02:00,
2013-01-07 18:12:00,45.0,44.0,30.23,West,270,0.0,2.0,98,0.00,,,-99.99,,2013-01-08 02:12:00,
2013-01-07 18:22:00,44.0,44.0,30.23,SW,225,0.0,2.0,99,0.00,,,-99.99,,2013-01-08 02:22:00,
2013-01-07 18:32:00,44.0,44.0,30.23,NW,315,0.0,2.0,99,0.00,,,-99.99,,2013-01-08 02:32:00,
2013-01-07 18:42:00,44.0,44.0,30.23,NW,315,0.0,2.0,99,0.00,,,-99.99,,2013-01-08 02:42:00,
2013-01-07 18:53:00,44.0,44.0,30.24,North,360,0.0,3.0,99,0.00,,,-99.99,,2013-01-08 02:53:00,
2013-01-07 19:02:00,44.0,44.0,30.24,South,180,0.0,3.0,99,0.00,,,-99.99,,2013-01-08 03:02:00,
2013-01-07 19:12:00,44.0,44.0,30.24,South,180,0.0,3.0,99,0.00,,,-99.99,,2013-01-08 03:12:00,
2013-01-07 19:22:00,44.0,44.0,30.26,NW,315,0.0,3.0,99,0.00,,,-99.99,,2013-01-08 03:22:00,
2013-01-07 19:32:00,44.0,44.0,30.26,NE,45,0.0,5.0,99,0.00,,,-99.99,,2013-01-08 03:32:00,
2013-01-07 19:42:00,44.0,44.0,30.26,NE,45,0.0,5.0,99,0.00,,,-99.99,,2013-01-08 03:42:00,
2013-01-07 19:53:00,44.0,44.0,30.26,NW,315,0.0,4.0,99,0.00,,,-99.99,,2013-01-08 03:53:00,
2013-01-07 20:02:00,44.0,44.0,30.27,NW,315,0.0,2.0,99,0.00,,,-99.99,,2013-01-08 04:02:00,
2013-01-07 20:11:00,44.0,44.0,30.27,NW,315,0.0,2.0,99,0.00,,,-99.99,,2013-01-08 04:11:00,
2013-01-07 20:22:00,44.0,44.0,30.27,North,360,0.0,2.0,99,0.00,,,-99.99,,2013-01-08 04:22:00,
2013-01-07 20:32:00,44.0,43.0,30.27,North,360,0.0,2.0,98,0.00,,,-99.99,,2013-01-08 04:32:00,
2013-01-07 20:42:00,44.0,43.0,30.27,North,360,0.0,2.0,98,0.00,,,-99.99,,2013-01-08 04:42:00,
2013-01-07 20:52:00,44.0,44.0,30.27,West,270,0.0,2.0,99,0.00,,,-99.99,,2013-01-08 04:52:00,
2013-01-07 21:03:00,43.0,42.0,30.29,SE,135,0.0,1.0,98,0.00,,,-99.99,,2013-01-08 05:03:00,
2013-01-07 21:12:00,43.0,42.0,30.29,SE,135,0.0,1.0,98,0.00,,,-99.99,,2013-01-08 05:12:00,
2013-01-07 21:22:00,43.0,42.0,30.29,WSW,248,0.0,0.0,98,0.00,,,-99.99,,2013-01-08 05:22:00,
2013-01-07 21:32:00,43.0,43.0,30.30,West,270,0.0,0.0,99,0.00,,,-99.99,,2013-01-08 05:32:00,
2013-01-07 21:42:00,43.0,43.0,30.30,West,270,0.0,0.0,99,0.00,,,-99.99,,2013-01-08 05:42:00,
2013-01-07 21:53:00,43.0,43.0,30.31,West,270,0.0,0.0,99,0.00,,,-99.99,,2013-01-08 05:53:00,
2013-01-07 22:02:00,43.0,43.0,30.31,West,270,0.0,1.0,99,0.00,,,-99.99,,2013-01-08 06:02:00,
2013-01-07 22:11:00,43.0,43.0,30.31,West,270,0.0,1.0,99,0.00,,,-99.99,,2013-01-08 06:11:00,
2013-01-07 22:22:00,43.0,43.0,30.31,West,270,0.0,1.0,99,0.00,,,-99.99,,2013-01-08 06:22:00,
2013-01-07 22:32:00,43.0,43.0,30.32,SW,225,0.0,1.0,99,0.00,,,-99.99,,2013-01-08 06:32:00,
2013-01-07 22:42:00,43.0,43.0,30.32,SW,225,0.0,1.0,99,0.00,,,-99.99,,2013-01-08 06:42:00,
2013-01-07 22:52:00,43.0,43.0,30.32,South,180,0.0,0.0,99,0.00,,,-99.99,,2013-01-08 06:52:00,
2013-01-07 23:02:00,43.0,43.0,30.34,SW,225,0.0,0.0,99,0.00,,,-99.99,,2013-01-08 07:02:00,
2013-01-07 23:11:00,43.0,43.0,30.34,SW,225,0.0,0.0,99,0.00,,,-99.99,,2013-01-08 07:11:00,
2013-01-07 23:22:00,43.0,43.0,30.34,South,180,0.0,1.0,99,0.00,,,-99.99,,2013-01-08 07:22:00,
2013-01-07 23:32:00,43.0,43.0,30.34,NW,315,0.0,1.0,99,0.00,,,-99.99,,2013-01-08 07:32:00,
2013-01-07 23:42:00,43.0,43.0,30.34,NW,315,0.0,1.0,99,0.00,,,-99.99,,2013-01-08 07:42:00,
2013-01-07 23:52:00,43.0,43.0,30.34,NW,315,0.0,0.0,99,0.00,,,-99.99,,2013-01-08 07:52:00,